FW8104 Weather Reports


Display with metric or nautical units.
time (UTC)temp
F
wind
direction
speed
MPH
gust
MPH
rain 1hr
in
rain 24hr
in
rain mn
in
humidity
%
barometer
mb
20260502195900 65 51 5.0 7.0 0.00 0.00 0.00 33 1020.3
20260502195356 66 245 3.0 4.0 0.00 0.00 0.00 35 1020.3
20260502194853 65 287 5.0 7.0 0.00 0.00 0.00 37 1020.5
20260502194350 65 354 5.0 6.0 0.00 0.00 0.00 34 1020.4
20260502193845 65 266 4.0 6.0 0.00 0.00 0.00 36 1020.4
20260502193343 65 344 3.0 7.0 0.00 0.00 0.00 34 1020.4
20260502192838 65 310 5.0 7.0 0.00 0.00 0.00 36 1020.4
20260502192336 64 354 13.0 18.0 0.00 0.00 0.00 36 1020.5
20260502191833 64 351 4.0 4.0 0.00 0.00 0.00 38 1020.4
20260502191331 65 204 3.0 6.0 0.00 0.00 0.00 38 1020.6
20260502190828 64 308 4.0 4.0 0.00 0.00 0.00 37 1020.4
20260502190325 65 334 6.0 9.0 0.00 0.00 0.00 37 1020.6
20260502185820 65 287 3.0 4.0 0.00 0.00 0.00 36 1020.7
20260502185316 65 190 2.0 3.0 0.00 0.00 0.00 38 1020.7
20260502184814 65 20 6.0 8.0 0.00 0.00 0.00 37 1020.7
20260502184309 64 217 2.0 2.0 0.00 0.00 0.00 37 1020.7
20260502183806 64 265 3.0 3.0 0.00 0.00 0.00 38 1020.7
20260502183301 64 342 3.0 4.0 0.00 0.00 0.00 38 1020.8
20260502182757 64 208 9.0 13.0 0.00 0.00 0.00 39 1020.9
20260502182253 64 279 3.0 7.0 0.00 0.00 0.00 38 1020.9
20260502181749 64 12 5.0 7.0 0.00 0.00 0.00 38 1020.8
20260502181243 63 274 3.0 4.0 0.00 0.00 0.00 39 1021.0
20260502180740 64 279 3.0 3.0 0.00 0.00 0.00 38 1021.1
20260502180237 64 270 2.0 3.0 0.00 0.00 0.00 38 1021.0
20260502170202 62 324 4.0 6.0 0.00 0.00 0.00 41 1021.8
20260502164148 62 31 6.0 8.0 0.00 0.00 0.00 41 1021.8
20260502163643 60 349 6.0 7.0 0.00 0.00 0.00 41 1021.7
20260502163141 61 340 5.0 7.0 0.00 0.00 0.00 40 1021.8
20260502162637 60 218 2.0 2.0 0.00 0.00 0.00 40 1021.9
20260502162134 60 357 7.0 8.0 0.00 0.00 0.00 40 1021.8
20260502161626 60 16 5.0 7.0 0.00 0.00 0.00 40 1021.8
20260502161123 60 358 9.0 10.0 0.00 0.00 0.00 38 1021.9
20260502160621 61 276 4.0 6.0 0.00 0.00 0.00 38 1021.8
20260502160119 61 29 4.0 4.0 0.00 0.00 0.00 38 1021.8
20260502152033 59 13 8.0 9.0 0.00 0.00 0.00 39 1021.6
20260502151531 58 25 9.0 10.0 0.00 0.00 0.00 41 1021.6
20260502151028 58 327 10.0 11.0 0.00 0.00 0.00 42 1021.8
20260502150525 58 359 4.0 4.0 0.00 0.00 0.00 45 1021.8
20260502130410 50 135 1.0 1.0 0.00 0.00 0.00 71 1021.1
20260502123352 49 181 0.0 0.0 0.00 0.00 0.00 76 1020.7
20260502122850 49 162 0.0 0.0 0.00 0.00 0.00 76 1020.7
20260502122345 49 137 1.0 1.0 0.00 0.00 0.00 75 1020.5
20260502121844 48 100 1.0 2.0 0.00 0.00 0.00 75 1020.6
20260502121341 48 68 2.0 2.0 0.00 0.00 0.00 76 1020.2
20260502120838 48 93 1.0 2.0 0.00 0.00 0.00 76 1020.1
20260502120334 48 104 0.0 0.0 0.00 0.00 0.00 76 1020.2
20260502115832 48 100 1.0 1.0 0.00 0.00 0.00 77 1020.1
20260502115329 48 104 1.0 1.0 0.00 0.00 0.00 77 1020.1
20260502114825 47 108 1.0 1.0 0.00 0.00 0.00 79 1020.1
20260502114322 46 132 0.0 1.0 0.00 0.00 0.00 81 1020.0
20260502113819 45 149 0.0 1.0 0.00 0.00 0.00 85 1020.2
20260502113317 45 150 0.0 0.0 0.00 0.00 0.00 87 1019.7
20260502112815 45 149 0.0 0.0 0.00 0.00 0.00 87 1020.0
20260502112312 45 149 0.0 0.0 0.00 0.00 0.00 88 1020.0
20260502111809 44 149 0.0 0.0 0.00 0.00 0.00 88 1019.7
20260502111307 45 149 0.0 0.0 0.00 0.00 0.00 87 1019.8
20260502110804 45 149 0.0 0.0 0.00 0.00 0.00 85 1019.6
20260502110302 46 149 0.0 0.0 0.00 0.00 0.00 84 1019.6
20260502105759 46 149 0.0 1.0 0.00 0.00 0.00 85 1019.5
20260502105255 46 151 0.0 0.0 0.00 0.00 0.00 84 1019.3
20260502104754 46 148 0.0 0.0 0.00 0.00 0.00 85 1019.5
20260502104251 46 126 1.0 1.0 0.00 0.00 0.00 84 1019.4
20260502103748 45 188 0.0 0.0 0.00 0.00 0.00 88 1019.3
20260502103245 46 188 0.0 0.0 0.00 0.00 0.00 88 1019.3
20260502102742 46 208 0.0 0.0 0.00 0.00 0.00 87 1019.2
20260502102239 46 209 1.0 1.0 0.00 0.00 0.00 88 1019.4
20260502101737 46 186 0.0 1.0 0.00 0.00 0.00 88 1019.3
20260502101235 47 185 0.0 0.0 0.00 0.00 0.00 87 1019.3
20260502100733 47 185 0.0 0.0 0.00 0.00 0.00 86 1019.3
20260502100231 47 185 1.0 1.0 0.00 0.00 0.00 86 1019.3
20260502091206 49 142 1.0 1.0 0.00 0.00 0.00 83 1018.9
20260502090703 48 133 0.0 1.0 0.00 0.00 0.00 88 1018.6
20260502090159 48 140 1.0 1.0 0.00 0.00 0.00 91 1018.5
20260502071055 46 177 0.0 0.0 0.00 0.00 0.00 94 1018.5
20260502070553 46 178 0.0 0.0 0.00 0.00 0.00 94 1018.4
20260502070050 46 179 0.0 0.0 0.00 0.00 0.00 94 1018.3
20260502065549 45 179 0.0 0.0 0.00 0.00 0.00 94 1018.6
20260502065046 45 179 0.0 0.0 0.00 0.00 0.00 94 1018.4
20260502064544 46 179 0.0 0.0 0.00 0.00 0.00 93 1018.4
20260502064041 46 179 0.0 0.0 0.00 0.00 0.00 93 1018.5
20260502063539 46 179 0.0 0.0 0.00 0.00 0.00 93 1018.5
20260502063036 46 179 0.0 0.0 0.00 0.00 0.00 93 1018.6
20260502062533 46 179 0.0 0.0 0.00 0.00 0.00 93 1018.5
20260502062032 46 179 0.0 0.0 0.00 0.00 0.00 93 1018.5
20260502061530 47 179 0.0 0.0 0.00 0.00 0.00 92 1018.6
20260502061026 47 179 0.0 1.0 0.00 0.00 0.00 92 1018.7
20260502060521 47 179 0.0 0.0 0.00 0.00 0.00 92 1018.7
20260502060018 47 179 0.0 0.0 0.00 0.00 0.00 92 1018.7
20260502055516 46 179 0.0 0.0 0.00 0.00 0.00 92 1018.5
20260502055015 46 178 0.0 0.0 0.00 0.00 0.00 91 1018.5
20260502054513 47 178 0.0 0.0 0.00 0.00 0.00 91 1018.5
20260502054010 47 179 0.0 0.0 0.00 0.00 0.00 92 1018.7
20260502053506 47 179 0.0 0.0 0.00 0.00 0.00 91 1018.6
20260502053005 47 179 0.0 0.0 0.00 0.00 0.00 91 1018.6
20260502052502 47 179 0.0 0.0 0.00 0.00 0.00 91 1018.5
20260502052000 47 179 0.0 0.0 0.00 0.00 0.00 90 1018.6
20260502051458 47 179 0.0 0.0 0.00 0.00 0.00 89 1018.8
20260502050955 48 179 0.0 0.0 0.00 0.00 0.00 88 1018.4
20260502050451 48 179 0.0 0.0 0.00 0.00 0.00 88 1018.4
20260502045949 49 180 0.0 0.0 0.00 0.00 0.00 87 1018.4
20260502045445 49 179 0.0 0.0 0.00 0.00 0.00 87 1018.5
20260502044942 49 158 0.0 0.0 0.00 0.00 0.00 86 1018.5
20260502044438 49 158 0.0 0.0 0.00 0.00 0.00 85 1018.4
20260502043935 50 158 0.0 0.0 0.00 0.00 0.00 83 1018.4
20260502043433 51 158 0.0 1.0 0.00 0.00 0.00 82 1018.4
20260502042932 51 143 0.0 0.0 0.00 0.00 0.00 81 1018.5
20260502042430 51 143 0.0 1.0 0.00 0.00 0.00 81 1018.5
20260502041927 51 143 0.0 0.0 0.00 0.00 0.00 82 1018.3
20260502041425 51 143 0.0 0.0 0.00 0.00 0.00 82 1018.6
20260502040921 51 143 0.0 0.0 0.00 0.00 0.00 80 1018.7
20260502040418 51 143 0.0 0.0 0.00 0.00 0.00 79 1018.6
20260502035914 51 165 1.0 1.0 0.00 0.00 0.00 80 1018.5
20260502035411 51 171 0.0 0.0 0.00 0.00 0.00 79 1018.6
20260502034908 52 171 0.0 0.0 0.00 0.00 0.00 78 1018.5
20260502034407 52 171 0.0 0.0 0.00 0.00 0.00 77 1018.7
20260502033905 52 171 0.0 0.0 0.00 0.00 0.00 75 1018.5
20260502033402 53 190 0.0 0.0 0.00 0.00 0.00 74 1018.6
20260502032859 53 190 0.0 0.0 0.00 0.00 0.00 73 1018.6
20260502032354 54 190 0.0 0.0 0.00 0.00 0.00 69 1018.4
20260502031853 53 190 0.0 0.0 0.00 0.00 0.00 68 1018.3
20260502031351 53 190 0.0 0.0 0.00 0.00 0.00 71 1018.4
20260502030848 53 190 0.0 0.0 0.00 0.00 0.00 70 1018.6
20260502030347 53 190 0.0 0.0 0.00 0.00 0.00 76 1018.5
20260502025844 53 191 1.0 1.0 0.00 0.00 0.00 75 1018.5
20260502025341 53 149 0.0 0.0 0.00 0.00 0.00 66 1018.3
20260502024839 53 147 0.0 0.0 0.00 0.00 0.00 69 1018.4
20260502024337 53 147 0.0 0.0 0.00 0.00 0.00 71 1018.5
20260502023834 53 147 0.0 0.0 0.00 0.00 0.00 71 1018.1
20260502023332 54 149 0.0 0.0 0.00 0.00 0.00 69 1018.3
20260502022830 54 149 0.0 0.0 0.00 0.00 0.00 67 1018.1
20260502022326 55 149 0.0 0.0 0.00 0.00 0.00 65 1017.9
20260502021822 56 147 0.0 0.0 0.00 0.00 0.00 61 1017.8
20260502021320 57 149 0.0 0.0 0.00 0.00 0.00 61 1017.9
20260502020817 57 149 1.0 1.0 0.00 0.00 0.00 61 1017.9
20260502020314 58 149 1.0 1.0 0.00 0.00 0.00 59 1017.2
20260502015811 57 146 0.0 0.0 0.00 0.00 0.00 59 1017.5
20260502015308 57 146 0.0 0.0 0.00 0.00 0.00 59 1017.5
20260502014806 56 148 0.0 0.0 0.00 0.00 0.00 59 1017.3
20260502014302 57 148 0.0 0.0 0.00 0.00 0.00 59 1017.3
20260502013758 57 148 0.0 0.0 0.00 0.00 0.00 59 1017.4
20260502013254 59 143 0.0 0.0 0.00 0.00 0.00 56 1017.3
20260502012751 59 148 0.0 0.0 0.00 0.00 0.00 53 1017.2
20260502012249 59 144 0.0 0.0 0.00 0.00 0.00 53 1017.3
20260502011746 57 144 0.0 0.0 0.00 0.00 0.00 56 1017.3
20260502011242 59 144 0.0 0.0 0.00 0.00 0.00 53 1017.3
20260502010740 59 147 0.0 0.0 0.00 0.00 0.00 51 1017.0
20260502010235 60 147 0.0 0.0 0.00 0.00 0.00 48 1017.2
20260502005733 61 147 0.0 0.0 0.00 0.00 0.00 46 1017.0
20260502005231 62 144 0.0 0.0 0.00 0.00 0.00 44 1017.0
20260502004727 62 147 1.0 1.0 0.00 0.00 0.00 42 1016.8
20260502004224 62 147 0.0 0.0 0.00 0.00 0.00 42 1016.7
20260502003721 63 149 0.0 1.0 0.00 0.00 0.00 41 1016.6
20260502003219 63 52 2.0 2.0 0.00 0.00 0.00 40 1016.5
20260502002714 64 62 3.0 4.0 0.00 0.00 0.00 39 1016.6
20260502002212 64 127 1.0 1.0 0.00 0.00 0.00 37 1016.6
20260502001709 64 177 1.0 1.0 0.00 0.00 0.00 38 1016.5
20260502001207 65 222 1.0 1.0 0.00 0.00 0.00 37 1016.3
20260502000704 65 76 2.0 3.0 0.00 0.00 0.00 37 1016.2
20260502000203 65 63 0.0 1.0 0.00 0.00 0.00 36 1016.4
20260501235658 66 300 2.0 3.0 0.00 0.00 0.00 36 1016.4
20260501235154 66 207 1.0 1.0 0.00 0.00 0.00 37 1016.3
20260501234649 66 294 2.0 3.0 0.00 0.00 0.00 36 1016.4
20260501234147 66 259 2.0 2.0 0.00 0.00 0.00 35 1016.2
20260501233645 66 202 1.0 1.0 0.00 0.00 0.00 35 1016.2
20260501233142 66 325 3.0 4.0 0.00 0.00 0.00 35 1016.4
20260501232638 66 27 4.0 6.0 0.00 0.00 0.00 35 1016.3
20260501232136 68 111 2.0 2.0 0.00 0.00 0.00 34 1016.4
20260501231633 67 205 1.0 1.0 0.00 0.00 0.00 34 1016.3
20260501231131 65 267 2.0 2.0 0.00 0.00 0.00 36 1016.3
20260501230629 65 138 3.0 4.0 0.00 0.00 0.00 36 1016.3
20260501230127 66 43 5.0 6.0 0.00 0.00 0.00 35 1016.4
20260501225624 66 107 2.0 2.0 0.00 0.00 0.00 36 1016.3
20260501225120 67 324 2.0 6.0 0.00 0.00 0.00 36 1016.3
20260501224618 66 205 1.0 2.0 0.00 0.00 0.00 34 1016.3
20260501224115 66 343 5.0 6.0 0.00 0.00 0.00 34 1016.1
20260501223611 66 347 3.0 3.0 0.00 0.00 0.00 35 1016.3
20260501223108 66 17 4.0 4.0 0.00 0.00 0.00 34 1016.1
20260501222604 66 19 7.0 8.0 0.00 0.00 0.00 34 1016.1
20260501222101 67 54 2.0 2.0 0.00 0.00 0.00 35 1016.3
20260501221557 66 67 7.0 8.0 0.00 0.00 0.00 35 1016.4
20260501221055 66 190 1.0 2.0 0.00 0.00 0.00 35 1016.1
20260501220553 66 48 7.0 8.0 0.00 0.00 0.00 36 1016.3
20260501220049 66 29 6.0 8.0 0.00 0.00 0.00 36 1016.4
20260501215545 66 20 4.0 6.0 0.00 0.00 0.00 35 1016.5
20260501215041 65 5 3.0 3.0 0.00 0.00 0.00 36 1016.5
20260501214536 66 47 2.0 3.0 0.00 0.00 0.00 36 1016.3
20260501214032 66 43 5.0 7.0 0.00 0.00 0.00 36 1016.4
20260501213530 68 19 2.0 2.0 0.00 0.00 0.00 34 1016.4
20260501213025 66 195 0.0 1.0 0.00 0.00 0.00 35 1016.5
20260501212522 68 171 0.0 1.0 0.00 0.00 0.00 31 1016.6
20260501212019 66 79 2.0 2.0 0.00 0.00 0.00 33 1016.9
20260501211516 66 89 3.0 3.0 0.00 0.00 0.00 34 1016.7
20260501211014 67 13 5.0 6.0 0.00 0.00 0.00 32 1016.9
20260501210510 66 18 3.0 3.0 0.00 0.00 0.00 33 1017.4
20260501210007 65 144 2.0 3.0 0.00 0.00 0.00 33 1017.3
20260501205503 65 125 4.0 6.0 0.00 0.00 0.00 35 1017.4
20260501205001 65 31 10.0 11.0 0.00 0.00 0.00 34 1017.4
20260501204456 65 69 6.0 8.0 0.00 0.00 0.00 33 1017.5
20260501203953 65 14 9.0 10.0 0.00 0.00 0.00 33 1017.8
20260501203450 65 8 8.0 10.0 0.00 0.00 0.00 32 1017.9
20260501202948 65 13 8.0 9.0 0.00 0.00 0.00 33 1018.0
20260501202444 67 36 2.0 3.0 0.00 0.00 0.00 32 1017.9
20260501201940 65 149 2.0 2.0 0.00 0.00 0.00 32 1018.2
20260501201437 65 160 1.0 1.0 0.00 0.00 0.00 31 1018.3
20260501200934 64 142 6.0 7.0 0.00 0.00 0.00 33 1018.5
20260501200431 65 48 9.0 11.0 0.00 0.00 0.00 33 1018.5